Simultaneous Nadir Overpasses (SNOs) Predictions

Prediction of SNOs between AQUA and METOP-B Satellite Orbit:

Table of predicted SNOs for the next 14.0 days since TLE Epoch: 12/10/2016
Index Date (AQUA) Time (AQUA) Lat,Lon (AQUA) SZA (AQUA ) Date (METOP-B) Time (METOP-B) Lat,Lon (METOP-B) SZA (METOP-B ) Distance(km) Time Diff (sec)
1 12/12/2016 08:30:07 -73.52,-132.79 83.43 12/12/2016 08:28:55 -73.45,-133.48 83.48 23.32 72
2 12/12/2016 09:19:38 73.72, 34.42 96.79 12/12/2016 09:19:29 73.72, 34.49 96.78 2.29 9
3 12/12/2016 10:09:05 -73.78,-158.06 83.16 12/12/2016 10:10:10 -73.78,-158.05 83.16 0.35 65
4 12/15/2016 04:04:23 -73.65, -66.61 83.12 12/15/2016 04:03:13 -73.65, -66.60 83.11 0.73 70
5 12/15/2016 04:53:51 73.70, 100.92 96.94 12/15/2016 04:53:51 73.72, 100.90 96.96 2.56 0
6 12/15/2016 05:43:19 -73.80, -91.67 82.96 12/15/2016 05:44:32 -73.78, -91.63 82.99 2.49 73
7 12/17/2016 23:38:37 -73.63, -0.13 83.03 12/17/2016 23:37:36 -73.66, -0.18 82.99 3.08 61
8 12/18/2016 00:28:06 73.74, 167.28 97.09 12/18/2016 00:28:14 73.72, 167.30 97.07 1.94 8
9 12/18/2016 01:17:39 -74.10, -25.88 82.54 12/18/2016 01:18:49 -74.08, -24.50 82.59 42.26 70
10 12/20/2016 19:12:52 -73.68, 66.21 82.93 12/20/2016 19:11:59 -73.66, 66.23 82.94 2.47 53
11 12/20/2016 20:02:20 73.73,-126.27 97.14 12/20/2016 20:02:37 73.72,-126.30 97.12 1.93 17
12 12/20/2016 20:52:00 -74.45, 39.73 82.11 12/20/2016 20:53:05 -74.42, 42.78 82.21 91.06 65
13 12/23/2016 14:47:05 -73.68, 132.64 82.93 12/23/2016 14:46:21 -73.65, 132.63 82.95 3.42 44
14 12/23/2016 15:36:33 73.74, -59.84 97.13 12/23/2016 15:36:58 73.76, -59.78 97.15 2.89 25




NCC Satellite Simultaneous Nadir Overpasses (SNOs) Prediction Service
